STARLINK-30075 (57616 NORAD) Tracking and Keplerian Element Data

This shows tracking and keplerian element data for the satellite.

Feedback or suggestion? Click here.




ElementValue
Catalog57616
NameSTARLINK-30075
Epoch Orbit376
Epoch Day239.16667824
Epoch Year2023
RAAN77.7461
Inclination43.0012
Eccentricity0.000338
Argument of Perigee209.6187
Mean Anonmoly43.2363
Mean Motion15.74464333
Decay Rate-0.00908638
L11 57616U 23119Q 23239.16667824 -.00908638 00000+0 -67436-2 0 9993
L22 57616 43.0012 77.7461 0003380 209.6187 43.2363 15.74464333 3763



Live tracking and technical data element details for STARLINK-30075 (NORAD 57616). STARLINK-30075 can be tracked NOW for your location showing map with azimuth and elevation plus other details from your city location.







IsCatalogInMostPopularTable: catalog: 57616, numindb: 5
Update: records affected: 1



GetName: 57616 STARLINK-30075

Hit Count: updated at: Tue, 26 Sep 2023 13:49:37 GMT